| time (UTC) | temp F | wind direction | speed MPH | gust MPH | rain 1hr in | rain 24hr in | rain mn in | humidity % | barometer mb |
| 20260906061301 | 85 | 195 | 2.0 | 5.0 | 0.00 | 0.00 | 0.00 | 24 | 1011.4 |
| 20260906060642 | 85 | 208 | 2.0 | 6.0 | 0.00 | 0.00 | 0.00 | 24 | 1011.3 |
| 20260906060317 | 85 | 194 | 3.0 | 6.0 | 0.00 | 0.00 | 0.00 | 24 | 1011.3 |
| 20260906055955 | 85 | 212 | 3.0 | 6.0 | 0.00 | 0.00 | 0.00 | 24 | 1011.3 |
| 20260906055637 | 85 | 218 | 3.0 | 9.0 | 0.00 | 0.00 | 0.00 | 24 | 1011.2 |
| 20260906055316 | 85 | 188 | 3.0 | 9.0 | 0.00 | 0.00 | 0.00 | 24 | 1011.3 |
| 20260906055001 | 85 | 200 | 3.0 | 9.0 | 0.00 | 0.00 | 0.00 | 23 | 1011.3 |
| 20260906054640 | 85 | 208 | 4.0 | 9.0 | 0.00 | 0.00 | 0.00 | 23 | 1011.2 |
| 20260906054320 | 85 | 202 | 4.0 | 9.0 | 0.00 | 0.00 | 0.00 | 24 | 1011.3 |
| 20260906053959 | 85 | 196 | 4.0 | 9.0 | 0.00 | 0.00 | 0.00 | 24 | 1011.3 |
| 20260906053645 | 85 | 213 | 4.0 | 8.0 | 0.00 | 0.00 | 0.00 | 24 | 1011.3 |
| 20260906053319 | 85 | 153 | 4.0 | 8.0 | 0.00 | 0.00 | 0.00 | 23 | 1011.3 |
| 20260906052354 | 85 | 157 | 4.0 | 7.0 | 0.00 | 0.00 | 0.00 | 24 | 1011.3 |
| 20260906052031 | 85 | 164 | 3.0 | 7.0 | 0.00 | 0.00 | 0.00 | 25 | 1011.4 |
| 20260906051710 | 85 | 169 | 2.0 | 6.0 | 0.00 | 0.00 | 0.00 | 25 | 1011.4 |
| 20260906051355 | 85 | 169 | 1.0 | 4.0 | 0.00 | 0.00 | 0.00 | 25 | 1011.4 |
| 20260906051038 | 85 | 169 | 1.0 | 4.0 | 0.00 | 0.00 | 0.00 | 25 | 1011.4 |
| 20260906050715 | 85 | 171 | 1.0 | 4.0 | 0.00 | 0.00 | 0.00 | 24 | 1011.3 |
| 20260906050052 | 86 | 191 | 2.0 | 4.0 | 0.00 | 0.00 | 0.00 | 24 | 1011.4 |
| 20260906045736 | 86 | 202 | 2.0 | 4.0 | 0.00 | 0.00 | 0.00 | 24 | 1011.4 |
| 20260906045410 | 86 | 200 | 2.0 | 3.0 | 0.00 | 0.00 | 0.00 | 24 | 1011.4 |
| 20260906045051 | 86 | 206 | 1.0 | 3.0 | 0.00 | 0.00 | 0.00 | 24 | 1011.3 |
| 20260906044735 | 86 | 202 | 1.0 | 3.0 | 0.00 | 0.00 | 0.00 | 24 | 1011.3 |
| 20260906044411 | 86 | 193 | 1.0 | 3.0 | 0.00 | 0.00 | 0.00 | 23 | 1011.3 |
| 20260906043754 | 86 | 200 | 1.0 | 4.0 | 0.00 | 0.00 | 0.00 | 23 | 1011.3 |
| 20260906043434 | 86 | 203 | 1.0 | 4.0 | 0.00 | 0.00 | 0.00 | 23 | 1011.4 |
| 20260906043109 | 87 | 215 | 2.0 | 4.0 | 0.00 | 0.00 | 0.00 | 23 | 1011.4 |
| 20260906042743 | 87 | 208 | 2.0 | 4.0 | 0.00 | 0.00 | 0.00 | 23 | 1011.4 |
| 20260906042423 | 87 | 262 | 1.0 | 4.0 | 0.00 | 0.00 | 0.00 | 23 | 1011.3 |
| 20260906042107 | 87 | 194 | 1.0 | 3.0 | 0.00 | 0.00 | 0.00 | 23 | 1011.3 |
| 20260906041442 | 87 | 216 | 0.0 | 3.0 | 0.00 | 0.00 | 0.00 | 22 | 1011.3 |
| 20260906041118 | 87 | 234 | 0.0 | 2.0 | 0.00 | 0.00 | 0.00 | 22 | 1011.3 |
| 20260906040802 | 87 | 221 | 0.0 | 5.0 | 0.00 | 0.00 | 0.00 | 23 | 1011.3 |
| 20260906040439 | 87 | 182 | 1.0 | 5.0 | 0.00 | 0.00 | 0.00 | 22 | 1011.3 |
| 20260906040116 | 88 | 210 | 1.0 | 5.0 | 0.00 | 0.00 | 0.00 | 22 | 1011.2 |
| 20260906035751 | 88 | 196 | 2.0 | 10.0 | 0.00 | 0.00 | 0.00 | 22 | 1011.2 |
| 20260906035433 | 88 | 232 | 2.0 | 10.0 | 0.00 | 0.00 | 0.00 | 22 | 1011.3 |
| 20260906035113 | 88 | 246 | 2.0 | 10.0 | 0.00 | 0.00 | 0.00 | 21 | 1011.1 |
| 20260906034747 | 88 | 290 | 3.0 | 10.0 | 0.00 | 0.00 | 0.00 | 21 | 1011.0 |
| 20260906034430 | 88 | 253 | 3.0 | 10.0 | 0.00 | 0.00 | 0.00 | 21 | 1011.0 |
| 20260906034108 | 88 | 300 | 4.0 | 10.0 | 0.00 | 0.00 | 0.00 | 21 | 1010.9 |
| 20260906033746 | 88 | 268 | 4.0 | 9.0 | 0.00 | 0.00 | 0.00 | 21 | 1011.0 |
| 20260906033422 | 89 | 275 | 5.0 | 9.0 | 0.00 | 0.00 | 0.00 | 21 | 1010.9 |
| 20260906033057 | 89 | 263 | 5.0 | 9.0 | 0.00 | 0.00 | 0.00 | 21 | 1010.9 |
| 20260906032738 | 89 | 248 | 5.0 | 9.0 | 0.00 | 0.00 | 0.00 | 21 | 1010.9 |
| 20260906032421 | 89 | 250 | 5.0 | 9.0 | 0.00 | 0.00 | 0.00 | 20 | 1010.7 |
| 20260906031802 | 89 | 282 | 6.0 | 12.0 | 0.00 | 0.00 | 0.00 | 20 | 1010.7 |
| 20260906031438 | 89 | 302 | 6.0 | 12.0 | 0.00 | 0.00 | 0.00 | 20 | 1010.6 |
| 20260906031114 | 89 | 238 | 6.0 | 14.0 | 0.00 | 0.00 | 0.00 | 20 | 1010.6 |
| 20260906030458 | 90 | 206 | 6.0 | 14.0 | 0.00 | 0.00 | 0.00 | 20 | 1010.6 |
| 20260906030142 | 90 | 261 | 6.0 | 14.0 | 0.00 | 0.00 | 0.00 | 20 | 1010.6 |
| 20260906025828 | 90 | 244 | 5.0 | 14.0 | 0.00 | 0.00 | 0.00 | 20 | 1010.6 |
| 20260906025506 | 90 | 198 | 6.0 | 14.0 | 0.00 | 0.00 | 0.00 | 20 | 1010.5 |
| 20260906025151 | 90 | 177 | 6.0 | 14.0 | 0.00 | 0.00 | 0.00 | 20 | 1010.6 |
| 20260906024234 | 90 | 238 | 7.0 | 14.0 | 0.00 | 0.00 | 0.00 | 19 | 1010.4 |
| 20260906023909 | 90 | 225 | 7.0 | 14.0 | 0.00 | 0.00 | 0.00 | 19 | 1010.5 |
| 20260906023550 | 90 | 246 | 7.0 | 14.0 | 0.00 | 0.00 | 0.00 | 19 | 1010.4 |
| 20260906023225 | 90 | 240 | 6.0 | 14.0 | 0.00 | 0.00 | 0.00 | 19 | 1010.4 |
| 20260906022904 | 90 | 198 | 5.0 | 13.0 | 0.00 | 0.00 | 0.00 | 19 | 1010.4 |
| 20260906022540 | 91 | 210 | 5.0 | 13.0 | 0.00 | 0.00 | 0.00 | 19 | 1010.4 |
| 20260906022215 | 91 | 210 | 4.0 | 13.0 | 0.00 | 0.00 | 0.00 | 19 | 1010.3 |
| 20260906021853 | 91 | 249 | 6.0 | 17.0 | 0.00 | 0.00 | 0.00 | 19 | 1010.4 |
| 20260906021529 | 91 | 217 | 7.0 | 17.0 | 0.00 | 0.00 | 0.00 | 20 | 1010.3 |
| 20260906021210 | 91 | 235 | 8.0 | 17.0 | 0.00 | 0.00 | 0.00 | 19 | 1010.3 |
| 20260906020852 | 91 | 270 | 8.0 | 17.0 | 0.00 | 0.00 | 0.00 | 19 | 1010.3 |
| 20260906020529 | 91 | 233 | 7.0 | 17.0 | 0.00 | 0.00 | 0.00 | 19 | 1010.4 |
| 20260906020204 | 91 | 236 | 7.0 | 17.0 | 0.00 | 0.00 | 0.00 | 19 | 1010.4 |
| 20260906015847 | 92 | 209 | 7.0 | 16.0 | 0.00 | 0.00 | 0.00 | 19 | 1010.4 |
| 20260906015527 | 92 | 259 | 8.0 | 16.0 | 0.00 | 0.00 | 0.00 | 19 | 1010.4 |
| 20260906015213 | 92 | 264 | 9.0 | 16.0 | 0.00 | 0.00 | 0.00 | 18 | 1010.4 |
| 20260906014859 | 92 | 279 | 9.0 | 17.0 | 0.00 | 0.00 | 0.00 | 18 | 1010.4 |
| 20260906014244 | 92 | 244 | 7.0 | 17.0 | 0.00 | 0.00 | 0.00 | 18 | 1010.5 |
| 20260906013929 | 92 | 253 | 8.0 | 19.0 | 0.00 | 0.00 | 0.00 | 18 | 1010.5 |
| 20260906013606 | 92 | 225 | 8.0 | 19.0 | 0.00 | 0.00 | 0.00 | 18 | 1010.5 |
| 20260906013241 | 93 | 228 | 8.0 | 19.0 | 0.00 | 0.00 | 0.00 | 18 | 1010.4 |
| 20260906012921 | 93 | 297 | 8.0 | 19.0 | 0.00 | 0.00 | 0.00 | 18 | 1010.5 |
| 20260906012600 | 93 | 236 | 8.0 | 19.0 | 0.00 | 0.00 | 0.00 | 18 | 1010.5 |
| 20260906012244 | 93 | 236 | 8.0 | 19.0 | 0.00 | 0.00 | 0.00 | 18 | 1010.5 |
| 20260906011922 | 93 | 221 | 8.0 | 17.0 | 0.00 | 0.00 | 0.00 | 18 | 1010.6 |
| 20260906011557 | 93 | 339 | 8.0 | 21.0 | 0.00 | 0.00 | 0.00 | 18 | 1010.6 |
| 20260906011232 | 93 | 226 | 9.0 | 21.0 | 0.00 | 0.00 | 0.00 | 18 | 1010.5 |
| 20260906010909 | 94 | 217 | 10.0 | 21.0 | 0.00 | 0.00 | 0.00 | 18 | 1010.5 |
| 20260906010552 | 94 | 251 | 10.0 | 21.0 | 0.00 | 0.00 | 0.00 | 17 | 1010.6 |
| 20260906010229 | 94 | 257 | 10.0 | 21.0 | 0.00 | 0.00 | 0.00 | 17 | 1010.6 |
| 20260906005608 | 94 | 297 | 9.0 | 20.0 | 0.00 | 0.00 | 0.00 | 17 | 1010.4 |
| 20260906005253 | 94 | 204 | 10.0 | 20.0 | 0.00 | 0.00 | 0.00 | 17 | 1010.5 |
| 20260906004632 | 95 | 260 | 9.0 | 20.0 | 0.00 | 0.00 | 0.00 | 16 | 1010.4 |
| 20260906004312 | 95 | 263 | 8.0 | 20.0 | 0.00 | 0.00 | 0.00 | 17 | 1010.5 |
| 20260906003956 | 95 | 253 | 8.0 | 19.0 | 0.00 | 0.00 | 0.00 | 16 | 1010.4 |
| 20260906003639 | 95 | 262 | 8.0 | 19.0 | 0.00 | 0.00 | 0.00 | 17 | 1010.5 |
| 20260906003321 | 95 | 188 | 8.0 | 19.0 | 0.00 | 0.00 | 0.00 | 16 | 1010.4 |
| 20260906002656 | 95 | 281 | 9.0 | 18.0 | 0.00 | 0.00 | 0.00 | 16 | 1010.4 |
| 20260906002337 | 95 | 217 | 9.0 | 17.0 | 0.00 | 0.00 | 0.00 | 16 | 1010.3 |
| 20260906002017 | 96 | 226 | 8.0 | 17.0 | 0.00 | 0.00 | 0.00 | 15 | 1010.4 |
| 20260906001655 | 96 | 229 | 7.0 | 17.0 | 0.00 | 0.00 | 0.00 | 15 | 1010.4 |
| 20260906001338 | 96 | 250 | 7.0 | 13.0 | 0.00 | 0.00 | 0.00 | 15 | 1010.3 |
| 20260906000722 | 96 | 285 | 6.0 | 18.0 | 0.00 | 0.00 | 0.00 | 15 | 1010.5 |
| 20260906000105 | 96 | 214 | 7.0 | 21.0 | 0.00 | 0.00 | 0.00 | 15 | 1010.4 |
| 20260905235748 | 96 | 207 | 7.0 | 21.0 | 0.00 | 0.00 | 0.00 | 15 | 1010.4 |
| 20260905235431 | 96 | 205 | 8.0 | 21.0 | 0.00 | 0.00 | 0.00 | 15 | 1010.4 |
| 20260905235112 | 96 | 238 | 8.0 | 21.0 | 0.00 | 0.00 | 0.00 | 15 | 1010.5 |
| 20260905234753 | 96 | 198 | 9.0 | 21.0 | 0.00 | 0.00 | 0.00 | 15 | 1010.5 |
| 20260905234435 | 96 | 215 | 8.0 | 21.0 | 0.00 | 0.00 | 0.00 | 15 | 1010.5 |
| 20260905234121 | 96 | 205 | 8.0 | 18.0 | 0.00 | 0.00 | 0.00 | 15 | 1010.5 |
| 20260905233157 | 96 | 242 | 11.0 | 22.0 | 0.00 | 0.00 | 0.00 | 15 | 1010.5 |
| 20260905231939 | 97 | 222 | 13.0 | 22.0 | 0.00 | 0.00 | 0.00 | 15 | 1010.5 |
| 20260905231620 | 97 | 188 | 13.0 | 22.0 | 0.00 | 0.00 | 0.00 | 14 | 1010.6 |
| 20260905231302 | 97 | 216 | 11.0 | 22.0 | 0.00 | 0.00 | 0.00 | 14 | 1010.5 |
| 20260905230942 | 97 | 217 | 11.0 | 22.0 | 0.00 | 0.00 | 0.00 | 15 | 1010.5 |
| 20260905230620 | 97 | 184 | 10.0 | 24.0 | 0.00 | 0.00 | 0.00 | 14 | 1010.5 |
| 20260905230255 | 97 | 256 | 11.0 | 24.0 | 0.00 | 0.00 | 0.00 | 14 | 1010.5 |
| 20260905225935 | 98 | 236 | 11.0 | 24.0 | 0.00 | 0.00 | 0.00 | 14 | 1010.5 |
| 20260905225614 | 98 | 228 | 11.0 | 26.0 | 0.00 | 0.00 | 0.00 | 13 | 1010.5 |
| 20260905225254 | 98 | 321 | 11.0 | 26.0 | 0.00 | 0.00 | 0.00 | 14 | 1010.6 |
| 20260905224934 | 98 | 234 | 10.0 | 26.0 | 0.00 | 0.00 | 0.00 | 14 | 1010.5 |
| 20260905224614 | 98 | 221 | 11.0 | 26.0 | 0.00 | 0.00 | 0.00 | 14 | 1010.5 |
| 20260905224251 | 98 | 182 | 12.0 | 26.0 | 0.00 | 0.00 | 0.00 | 13 | 1010.6 |
| 20260905223929 | 98 | 191 | 12.0 | 26.0 | 0.00 | 0.00 | 0.00 | 13 | 1010.6 |
| 20260905223605 | 98 | 186 | 10.0 | 21.0 | 0.00 | 0.00 | 0.00 | 13 | 1010.6 |
| 20260905223248 | 99 | 243 | 11.0 | 27.0 | 0.00 | 0.00 | 0.00 | 13 | 1010.7 |
| 20260905222932 | 98 | 202 | 11.0 | 27.0 | 0.00 | 0.00 | 0.00 | 13 | 1010.8 |
| 20260905222617 | 98 | 188 | 12.0 | 27.0 | 0.00 | 0.00 | 0.00 | 13 | 1010.7 |
| 20260905222300 | 98 | 197 | 13.0 | 30.0 | 0.00 | 0.00 | 0.00 | 13 | 1010.7 |
| 20260905221939 | 98 | 214 | 12.0 | 30.0 | 0.00 | 0.00 | 0.00 | 13 | 1010.7 |
| 20260905221617 | 98 | 181 | 12.0 | 30.0 | 0.00 | 0.00 | 0.00 | 13 | 1010.7 |
| 20260905221257 | 99 | 178 | 12.0 | 30.0 | 0.00 | 0.00 | 0.00 | 12 | 1010.7 |
| 20260905220939 | 98 | 234 | 12.0 | 30.0 | 0.00 | 0.00 | 0.00 | 12 | 1010.9 |
| 20260905220616 | 98 | 209 | 12.0 | 30.0 | 0.00 | 0.00 | 0.00 | 12 | 1010.8 |
| 20260905220250 | 98 | 256 | 11.0 | 26.0 | 0.00 | 0.00 | 0.00 | 12 | 1010.9 |
| 20260905215925 | 98 | 225 | 12.0 | 26.0 | 0.00 | 0.00 | 0.00 | 12 | 1010.9 |
| 20260905215305 | 98 | 198 | 13.0 | 26.0 | 0.00 | 0.00 | 0.00 | 12 | 1011.0 |
| 20260905214943 | 98 | 194 | 13.0 | 25.0 | 0.00 | 0.00 | 0.00 | 13 | 1011.1 |
| 20260905214626 | 98 | 236 | 13.0 | 25.0 | 0.00 | 0.00 | 0.00 | 12 | 1011.1 |
| 20260905214305 | 98 | 226 | 12.0 | 25.0 | 0.00 | 0.00 | 0.00 | 12 | 1011.2 |
| 20260905213941 | 98 | 181 | 12.0 | 25.0 | 0.00 | 0.00 | 0.00 | 11 | 1011.3 |
| 20260905213618 | 98 | 230 | 11.0 | 23.0 | 0.00 | 0.00 | 0.00 | 10 | 1011.3 |
| 20260905213303 | 97 | 173 | 11.0 | 21.0 | 0.00 | 0.00 | 0.00 | 10 | 1011.3 |
| 20260905212948 | 97 | 138 | 12.0 | 21.0 | 0.00 | 0.00 | 0.00 | 10 | 1011.5 |
| 20260905212331 | 98 | 229 | 10.0 | 24.0 | 0.00 | 0.00 | 0.00 | 10 | 1011.6 |
| 20260905212004 | 98 | 192 | 10.0 | 24.0 | 0.00 | 0.00 | 0.00 | 9 | 1011.5 |
| 20260905211644 | 98 | 243 | 10.0 | 24.0 | 0.00 | 0.00 | 0.00 | 10 | 1011.6 |
| 20260905211321 | 98 | 144 | 10.0 | 24.0 | 0.00 | 0.00 | 0.00 | 10 | 1011.4 |
| 20260905211001 | 98 | 222 | 10.0 | 24.0 | 0.00 | 0.00 | 0.00 | 9 | 1011.5 |
| 20260905210335 | 97 | 184 | 11.0 | 22.0 | 0.00 | 0.00 | 0.00 | 10 | 1011.5 |
| 20260905210011 | 97 | 184 | 11.0 | 22.0 | 0.00 | 0.00 | 0.00 | 9 | 1011.6 |
| 20260905205647 | 97 | 215 | 11.0 | 27.0 | 0.00 | 0.00 | 0.00 | 9 | 1011.6 |
| 20260905205331 | 98 | 281 | 11.0 | 27.0 | 0.00 | 0.00 | 0.00 | 9 | 1011.6 |
| 20260905205007 | 98 | 222 | 11.0 | 27.0 | 0.00 | 0.00 | 0.00 | 8 | 1011.6 |
| 20260905204652 | 98 | 155 | 11.0 | 27.0 | 0.00 | 0.00 | 0.00 | 8 | 1011.8 |
| 20260905204331 | 97 | 209 | 10.0 | 27.0 | 0.00 | 0.00 | 0.00 | 8 | 1011.9 |
| 20260905204012 | 98 | 235 | 10.0 | 27.0 | 0.00 | 0.00 | 0.00 | 9 | 1011.8 |
| 20260905203655 | 98 | 211 | 10.0 | 22.0 | 0.00 | 0.00 | 0.00 | 9 | 1011.8 |
| 20260905203335 | 98 | 169 | 10.0 | 22.0 | 0.00 | 0.00 | 0.00 | 9 | 1011.9 |
| 20260905203015 | 98 | 209 | 11.0 | 22.0 | 0.00 | 0.00 | 0.00 | 8 | 1011.9 |
| 20260905202651 | 98 | 200 | 11.0 | 22.0 | 0.00 | 0.00 | 0.00 | 8 | 1012.0 |
| 20260905202018 | 98 | 238 | 9.0 | 20.0 | 0.00 | 0.00 | 0.00 | 10 | 1012.0 |
| 20260905201356 | 99 | 257 | 8.0 | 21.0 | 0.00 | 0.00 | 0.00 | 9 | 1011.9 |
| 20260905201032 | 99 | 149 | 7.0 | 21.0 | 0.00 | 0.00 | 0.00 | 9 | 1011.9 |
| 20260905200415 | 98 | 203 | 10.0 | 21.0 | 0.00 | 0.00 | 0.00 | 8 | 1012.0 |
| 20260905200053 | 98 | 230 | 10.0 | 21.0 | 0.00 | 0.00 | 0.00 | 9 | 1012.1 |
| 20260905195728 | 97 | 212 | 10.0 | 21.0 | 0.00 | 0.00 | 0.00 | 9 | 1012.1 |
| 20260905195411 | 97 | 157 | 9.0 | 21.0 | 0.00 | 0.00 | 0.00 | 9 | 1012.0 |
| 20260905195045 | 97 | 152 | 10.0 | 20.0 | 0.00 | 0.00 | 0.00 | 9 | 1012.2 |
| 20260905194724 | 97 | 198 | 9.0 | 20.0 | 0.00 | 0.00 | 0.00 | 9 | 1012.3 |
| 20260905194404 | 97 | 180 | 9.0 | 20.0 | 0.00 | 0.00 | 0.00 | 9 | 1012.4 |
| 20260905193438 | 96 | 192 | 10.0 | 19.0 | 0.00 | 0.00 | 0.00 | 9 | 1012.5 |
| 20260905193122 | 96 | 175 | 10.0 | 18.0 | 0.00 | 0.00 | 0.00 | 9 | 1012.5 |
| 20260905192803 | 96 | 194 | 9.0 | 18.0 | 0.00 | 0.00 | 0.00 | 8 | 1012.4 |
| 20260905192444 | 96 | 189 | 9.0 | 19.0 | 0.00 | 0.00 | 0.00 | 9 | 1012.4 |
| 20260905192123 | 95 | 177 | 9.0 | 19.0 | 0.00 | 0.00 | 0.00 | 9 | 1012.5 |
| 20260905191801 | 95 | 179 | 10.0 | 19.0 | 0.00 | 0.00 | 0.00 | 9 | 1012.5 |
| 20260905191443 | 95 | 215 | 10.0 | 19.0 | 0.00 | 0.00 | 0.00 | 9 | 1012.5 |
| 20260905191124 | 96 | 240 | 10.0 | 19.0 | 0.00 | 0.00 | 0.00 | 9 | 1012.6 |
| 20260905190810 | 96 | 171 | 10.0 | 19.0 | 0.00 | 0.00 | 0.00 | 10 | 1012.6 |
| 20260905190450 | 95 | 138 | 9.0 | 19.0 | 0.00 | 0.00 | 0.00 | 11 | 1012.7 |
| 20260905190134 | 95 | 159 | 9.0 | 19.0 | 0.00 | 0.00 | 0.00 | 12 | 1012.7 |
| 20260905185814 | 95 | 138 | 9.0 | 19.0 | 0.00 | 0.00 | 0.00 | 12 | 1012.8 |
| 20260905185458 | 95 | 145 | 9.0 | 19.0 | 0.00 | 0.00 | 0.00 | 11 | 1012.7 |
| 20260905184841 | 94 | 197 | 9.0 | 17.0 | 0.00 | 0.00 | 0.00 | 11 | 1012.8 |
| 20260905184516 | 94 | 162 | 9.0 | 19.0 | 0.00 | 0.00 | 0.00 | 12 | 1012.8 |
| 20260905184152 | 94 | 172 | 9.0 | 19.0 | 0.00 | 0.00 | 0.00 | 13 | 1012.8 |
| 20260905183827 | 94 | 149 | 9.0 | 19.0 | 0.00 | 0.00 | 0.00 | 12 | 1012.9 |
| 20260905183506 | 94 | 150 | 9.0 | 19.0 | 0.00 | 0.00 | 0.00 | 13 | 1013.0 |
| 20260905183146 | 94 | 167 | 9.0 | 19.0 | 0.00 | 0.00 | 0.00 | 12 | 1013.1 |
| 20260905182830 | 94 | 155 | 8.0 | 19.0 | 0.00 | 0.00 | 0.00 | 12 | 1013.1 |
| 20260905182504 | 94 | 127 | 7.0 | 14.0 | 0.00 | 0.00 | 0.00 | 14 | 1013.1 |
| 20260905182138 | 93 | 143 | 7.0 | 14.0 | 0.00 | 0.00 | 0.00 | 16 | 1013.0 |
| 20260905181822 | 92 | 157 | 7.0 | 14.0 | 0.00 | 0.00 | 0.00 | 15 | 1013.0 |
| 20260905181504 | 92 | 119 | 7.0 | 15.0 | 0.00 | 0.00 | 0.00 | 15 | 1013.1 |
| 20260905181150 | 92 | 230 | 7.0 | 15.0 | 0.00 | 0.00 | 0.00 | 15 | 1013.1 |
| 20260905180825 | 92 | 141 | 7.0 | 15.0 | 0.00 | 0.00 | 0.00 | 16 | 1013.2 |
| 20260905180509 | 92 | 138 | 8.0 | 15.0 | 0.00 | 0.00 | 0.00 | 15 | 1013.2 |
| 20260905180144 | 92 | 163 | 8.0 | 15.0 | 0.00 | 0.00 | 0.00 | 15 | 1013.2 |
| 20260905175824 | 92 | 142 | 8.0 | 15.0 | 0.00 | 0.00 | 0.00 | 15 | 1013.3 |
| 20260905175502 | 91 | 117 | 7.0 | 14.0 | 0.00 | 0.00 | 0.00 | 17 | 1013.2 |
| 20260905175137 | 91 | 120 | 7.0 | 14.0 | 0.00 | 0.00 | 0.00 | 16 | 1013.1 |
| 20260905174820 | 91 | 146 | 8.0 | 14.0 | 0.00 | 0.00 | 0.00 | 17 | 1013.2 |
| 20260905174454 | 91 | 144 | 8.0 | 14.0 | 0.00 | 0.00 | 0.00 | 17 | 1013.2 |
| 20260905174138 | 90 | 157 | 8.0 | 14.0 | 0.00 | 0.00 | 0.00 | 17 | 1013.3 |
| 20260905173822 | 90 | 153 | 7.0 | 13.0 | 0.00 | 0.00 | 0.00 | 17 | 1013.3 |
| 20260905173501 | 90 | 146 | 6.0 | 13.0 | 0.00 | 0.00 | 0.00 | 18 | 1013.3 |
| 20260905173136 | 90 | 145 | 7.0 | 13.0 | 0.00 | 0.00 | 0.00 | 18 | 1013.3 |
| 20260905172811 | 89 | 134 | 7.0 | 13.0 | 0.00 | 0.00 | 0.00 | 19 | 1013.2 |
| 20260905172452 | 88 | 158 | 6.0 | 12.0 | 0.00 | 0.00 | 0.00 | 18 | 1013.3 |
| 20260905171836 | 88 | 161 | 6.0 | 15.0 | 0.00 | 0.00 | 0.00 | 19 | 1013.4 |
| 20260905171218 | 88 | 134 | 8.0 | 15.0 | 0.00 | 0.00 | 0.00 | 19 | 1013.5 |
| 20260905170904 | 88 | 123 | 8.0 | 15.0 | 0.00 | 0.00 | 0.00 | 19 | 1013.5 |
| 20260905170542 | 88 | 125 | 8.0 | 16.0 | 0.00 | 0.00 | 0.00 | 19 | 1013.4 |
| 20260905170223 | 87 | 149 | 9.0 | 16.0 | 0.00 | 0.00 | 0.00 | 19 | 1013.5 |
| 20260905165859 | 87 | 134 | 9.0 | 16.0 | 0.00 | 0.00 | 0.00 | 20 | 1013.5 |
| 20260905165534 | 87 | 111 | 9.0 | 16.0 | 0.00 | 0.00 | 0.00 | 19 | 1013.4 |
| 20260905165208 | 87 | 126 | 8.0 | 16.0 | 0.00 | 0.00 | 0.00 | 20 | 1013.4 |
| 20260905164552 | 86 | 144 | 7.0 | 14.0 | 0.00 | 0.00 | 0.00 | 21 | 1013.4 |
| 20260905164227 | 86 | 153 | 7.0 | 14.0 | 0.00 | 0.00 | 0.00 | 21 | 1013.3 |
| 20260905163900 | 86 | 146 | 7.0 | 14.0 | 0.00 | 0.00 | 0.00 | 21 | 1013.4 |
| 20260905163544 | 86 | 104 | 8.0 | 14.0 | 0.00 | 0.00 | 0.00 | 21 | 1013.4 |
| 20260905162923 | 85 | 148 | 8.0 | 15.0 | 0.00 | 0.00 | 0.00 | 21 | 1013.4 |
| 20260905162605 | 85 | 213 | 8.0 | 15.0 | 0.00 | 0.00 | 0.00 | 21 | 1013.3 |
| 20260905161938 | 85 | 138 | 8.0 | 15.0 | 0.00 | 0.00 | 0.00 | 22 | 1013.2 |
| 20260905161616 | 84 | 164 | 7.0 | 15.0 | 0.00 | 0.00 | 0.00 | 23 | 1013.2 |
| 20260905161258 | 84 | 155 | 7.0 | 15.0 | 0.00 | 0.00 | 0.00 | 23 | 1013.2 |
| 20260905160931 | 84 | 159 | 6.0 | 13.0 | 0.00 | 0.00 | 0.00 | 23 | 1013.2 |
| 20260905160615 | 84 | 169 | 5.0 | 13.0 | 0.00 | 0.00 | 0.00 | 23 | 1013.1 |
| 20260905160300 | 83 | 142 | 5.0 | 11.0 | 0.00 | 0.00 | 0.00 | 24 | 1013.2 |
| 20260905155635 | 83 | 146 | 7.0 | 14.0 | 0.00 | 0.00 | 0.00 | 24 | 1013.1 |
| 20260905155308 | 83 | 134 | 8.0 | 14.0 | 0.00 | 0.00 | 0.00 | 24 | 1013.2 |
| 20260905154944 | 83 | 128 | 8.0 | 14.0 | 0.00 | 0.00 | 0.00 | 24 | 1013.1 |
| 20260905154622 | 83 | 144 | 7.0 | 14.0 | 0.00 | 0.00 | 0.00 | 24 | 1013.1 |
| 20260905154300 | 83 | 133 | 5.0 | 14.0 | 0.00 | 0.00 | 0.00 | 24 | 1013.1 |
| 20260905153343 | 81 | 150 | 4.0 | 13.0 | 0.00 | 0.00 | 0.00 | 25 | 1013.2 |
| 20260905153029 | 81 | 189 | 4.0 | 13.0 | 0.00 | 0.00 | 0.00 | 26 | 1013.1 |
| 20260905152715 | 81 | 169 | 4.0 | 13.0 | 0.00 | 0.00 | 0.00 | 26 | 1013.2 |
| 20260905152353 | 80 | 208 | 5.0 | 14.0 | 0.00 | 0.00 | 0.00 | 27 | 1013.2 |
| 20260905152036 | 80 | 208 | 6.0 | 14.0 | 0.00 | 0.00 | 0.00 | 26 | 1013.2 |
| 20260905151712 | 80 | 169 | 6.0 | 14.0 | 0.00 | 0.00 | 0.00 | 26 | 1013.1 |
| 20260905151350 | 79 | 169 | 7.0 | 14.0 | 0.00 | 0.00 | 0.00 | 27 | 1013.1 |
| 20260905151025 | 79 | 165 | 7.0 | 14.0 | 0.00 | 0.00 | 0.00 | 27 | 1013.1 |
| 20260905150711 | 79 | 178 | 7.0 | 14.0 | 0.00 | 0.00 | 0.00 | 27 | 1013.1 |
| 20260905150344 | 79 | 213 | 6.0 | 13.0 | 0.00 | 0.00 | 0.00 | 27 | 1013.1 |
| 20260905150024 | 78 | 175 | 6.0 | 13.0 | 0.00 | 0.00 | 0.00 | 28 | 1013.1 |
| 20260905145708 | 78 | 201 | 5.0 | 11.0 | 0.00 | 0.00 | 0.00 | 28 | 1013.0 |
| 20260905145353 | 78 | 164 | 5.0 | 11.0 | 0.00 | 0.00 | 0.00 | 28 | 1013.1 |
| 20260905145038 | 78 | 173 | 5.0 | 11.0 | 0.00 | 0.00 | 0.00 | 28 | 1013.0 |
| 20260905144722 | 77 | 207 | 5.0 | 11.0 | 0.00 | 0.00 | 0.00 | 28 | 1013.0 |
| 20260905144403 | 77 | 202 | 5.0 | 10.0 | 0.00 | 0.00 | 0.00 | 29 | 1013.0 |
| 20260905144049 | 76 | 167 | 5.0 | 10.0 | 0.00 | 0.00 | 0.00 | 29 | 1013.0 |
| 20260905143733 | 76 | 189 | 5.0 | 10.0 | 0.00 | 0.00 | 0.00 | 31 | 1013.0 |
| 20260905143408 | 74 | 182 | 5.0 | 10.0 | 0.00 | 0.00 | 0.00 | 31 | 1013.0 |
| 20260905143048 | 74 | 218 | 5.0 | 10.0 | 0.00 | 0.00 | 0.00 | 32 | 1012.9 |
| 20260905142730 | 73 | 176 | 5.0 | 10.0 | 0.00 | 0.00 | 0.00 | 32 | 1013.0 |
| 20260905142415 | 73 | 148 | 5.0 | 10.0 | 0.00 | 0.00 | 0.00 | 33 | 1012.8 |
| 20260905142052 | 73 | 255 | 5.0 | 10.0 | 0.00 | 0.00 | 0.00 | 33 | 1012.8 |
| 20260905141731 | 72 | 205 | 4.0 | 10.0 | 0.00 | 0.00 | 0.00 | 33 | 1012.8 |
| 20260905141409 | 72 | 159 | 4.0 | 10.0 | 0.00 | 0.00 | 0.00 | 33 | 1012.7 |
| 20260905141045 | 72 | 171 | 4.0 | 10.0 | 0.00 | 0.00 | 0.00 | 33 | 1012.7 |
| 20260905140724 | 72 | 175 | 4.0 | 10.0 | 0.00 | 0.00 | 0.00 | 34 | 1012.7 |
| 20260905140406 | 72 | 220 | 4.0 | 9.0 | 0.00 | 0.00 | 0.00 | 34 | 1012.6 |
| 20260905135742 | 72 | 236 | 4.0 | 8.0 | 0.00 | 0.00 | 0.00 | 34 | 1012.5 |
| 20260905135422 | 72 | 181 | 3.0 | 8.0 | 0.00 | 0.00 | 0.00 | 34 | 1012.5 |
| 20260905135102 | 72 | 181 | 3.0 | 7.0 | 0.00 | 0.00 | 0.00 | 34 | 1012.3 |
| 20260905134446 | 72 | 157 | 2.0 | 6.0 | 0.00 | 0.00 | 0.00 | 34 | 1012.2 |
| 20260905134132 | 72 | 192 | 2.0 | 6.0 | 0.00 | 0.00 | 0.00 | 33 | 1012.1 |
| 20260905133215 | 73 | 230 | 1.0 | 2.0 | 0.00 | 0.00 | 0.00 | 33 | 1012.1 |
| 20260905132550 | 73 | 282 | 0.0 | 2.0 | 0.00 | 0.00 | 0.00 | 33 | 1012.0 |
| 20260905132234 | 73 | 251 | 0.0 | 2.0 | 0.00 | 0.00 | 0.00 | 34 | 1011.9 |
| 20260905131914 | 73 | 251 | 0.0 | 2.0 | 0.00 | 0.00 | 0.00 | 32 | 1011.8 |
| 20260905131558 | 73 | 252 | 1.0 | 2.0 | 0.00 | 0.00 | 0.00 | 32 | 1011.7 |
| 20260905131240 | 73 | 284 | 1.0 | 6.0 | 0.00 | 0.00 | 0.00 | 32 | 1011.7 |
| 20260905130915 | 74 | 271 | 2.0 | 6.0 | 0.00 | 0.00 | 0.00 | 31 | 1011.5 |
| 20260905130600 | 74 | 279 | 3.0 | 6.0 | 0.00 | 0.00 | 0.00 | 31 | 1011.5 |
| 20260905130241 | 74 | 244 | 3.0 | 9.0 | 0.00 | 0.00 | 0.00 | 31 | 1011.5 |
| 20260905125913 | 74 | 219 | 3.0 | 9.0 | 0.00 | 0.00 | 0.00 | 31 | 1011.4 |
| 20260905125253 | 74 | 170 | 4.0 | 9.0 | 0.00 | 0.00 | 0.00 | 31 | 1011.4 |
| 20260905124638 | 74 | 167 | 4.0 | 9.0 | 0.00 | 0.00 | 0.00 | 31 | 1011.3 |
| 20260905124320 | 74 | 175 | 4.0 | 8.0 | 0.00 | 0.00 | 0.00 | 31 | 1011.3 |
| 20260905124005 | 74 | 206 | 3.0 | 8.0 | 0.00 | 0.00 | 0.00 | 31 | 1011.4 |
| 20260905123643 | 74 | 228 | 3.0 | 12.0 | 0.00 | 0.00 | 0.00 | 31 | 1011.3 |
| 20260905122725 | 75 | 211 | 4.0 | 12.0 | 0.00 | 0.00 | 0.00 | 30 | 1011.3 |
| 20260905122401 | 75 | 182 | 5.0 | 12.0 | 0.00 | 0.00 | 0.00 | 30 | 1011.2 |
| 20260905121740 | 75 | 153 | 6.0 | 12.0 | 0.00 | 0.00 | 0.00 | 31 | 1011.1 |
| 20260905121425 | 75 | 132 | 6.0 | 13.0 | 0.00 | 0.00 | 0.00 | 30 | 1011.1 |
| 20260905120801 | 75 | 157 | 6.0 | 13.0 | 0.00 | 0.00 | 0.00 | 30 | 1011.2 |
| 20260905120437 | 75 | 186 | 6.0 | 16.0 | 0.00 | 0.00 | 0.00 | 30 | 1011.2 |
| 20260905120116 | 75 | 165 | 7.0 | 16.0 | 0.00 | 0.00 | 0.00 | 30 | 1011.1 |
| 20260905115756 | 75 | 184 | 8.0 | 16.0 | 0.00 | 0.00 | 0.00 | 30 | 1011.2 |
| 20260905115441 | 75 | 147 | 8.0 | 17.0 | 0.00 | 0.00 | 0.00 | 30 | 1011.2 |
| 20260905115116 | 75 | 157 | 9.0 | 17.0 | 0.00 | 0.00 | 0.00 | 30 | 1011.2 |
| 20260905114749 | 75 | 173 | 9.0 | 17.0 | 0.00 | 0.00 | 0.00 | 31 | 1011.3 |
| 20260905114431 | 75 | 166 | 9.0 | 17.0 | 0.00 | 0.00 | 0.00 | 30 | 1011.2 |
| 20260905114116 | 75 | 189 | 8.0 | 17.0 | 0.00 | 0.00 | 0.00 | 30 | 1011.2 |
| 20260905113801 | 75 | 142 | 7.0 | 17.0 | 0.00 | 0.00 | 0.00 | 31 | 1011.2 |
| 20260905113446 | 75 | 175 | 7.0 | 16.0 | 0.00 | 0.00 | 0.00 | 30 | 1011.3 |
| 20260905113123 | 75 | 169 | 7.0 | 16.0 | 0.00 | 0.00 | 0.00 | 30 | 1011.2 |
| 20260905112505 | 75 | 133 | 7.0 | 14.0 | 0.00 | 0.00 | 0.00 | 30 | 1011.2 |
| 20260905112139 | 75 | 153 | 7.0 | 14.0 | 0.00 | 0.00 | 0.00 | 30 | 1011.1 |
| 20260905111824 | 75 | 169 | 6.0 | 12.0 | 0.00 | 0.00 | 0.00 | 30 | 1011.2 |
| 20260905111509 | 75 | 153 | 5.0 | 12.0 | 0.00 | 0.00 | 0.00 | 30 | 1011.2 |
| 20260905110854 | 75 | 180 | 5.0 | 11.0 | 0.00 | 0.00 | 0.00 | 31 | 1011.1 |
| 20260905110532 | 75 | 180 | 5.0 | 11.0 | 0.00 | 0.00 | 0.00 | 31 | 1011.2 |
| 20260905110217 | 75 | 175 | 6.0 | 11.0 | 0.00 | 0.00 | 0.00 | 31 | 1011.2 |
| 20260905105854 | 75 | 157 | 5.0 | 10.0 | 0.00 | 0.00 | 0.00 | 30 | 1011.2 |
| 20260905105238 | 75 | 163 | 5.0 | 10.0 | 0.00 | 0.00 | 0.00 | 31 | 1011.2 |
| 20260905104922 | 75 | 184 | 4.0 | 9.0 | 0.00 | 0.00 | 0.00 | 30 | 1011.2 |
| 20260905104607 | 75 | 176 | 4.0 | 9.0 | 0.00 | 0.00 | 0.00 | 31 | 1011.1 |
| 20260905104252 | 75 | 178 | 4.0 | 9.0 | 0.00 | 0.00 | 0.00 | 30 | 1011.2 |
| 20260905103932 | 76 | 167 | 4.0 | 9.0 | 0.00 | 0.00 | 0.00 | 30 | 1011.1 |
| 20260905103612 | 76 | 186 | 4.0 | 9.0 | 0.00 | 0.00 | 0.00 | 30 | 1011.1 |
| 20260905103255 | 76 | 194 | 4.0 | 12.0 | 0.00 | 0.00 | 0.00 | 30 | 1011.1 |
| 20260905102934 | 76 | 180 | 5.0 | 12.0 | 0.00 | 0.00 | 0.00 | 30 | 1011.0 |
| 20260905102612 | 75 | 210 | 6.0 | 12.0 | 0.00 | 0.00 | 0.00 | 30 | 1011.0 |
| 20260905102253 | 76 | 206 | 5.0 | 12.0 | 0.00 | 0.00 | 0.00 | 30 | 1011.0 |
| 20260905101935 | 75 | 225 | 5.0 | 12.0 | 0.00 | 0.00 | 0.00 | 30 | 1011.0 |
| 20260905101607 | 75 | 130 | 4.0 | 12.0 | 0.00 | 0.00 | 0.00 | 30 | 1010.9 |
| 20260905101249 | 75 | 161 | 5.0 | 12.0 | 0.00 | 0.00 | 0.00 | 30 | 1010.9 |
| 20260905100630 | 75 | 180 | 5.0 | 12.0 | 0.00 | 0.00 | 0.00 | 30 | 1011.0 |
| 20260905100312 | 75 | 186 | 5.0 | 10.0 | 0.00 | 0.00 | 0.00 | 30 | 1011.0 |
| 20260905095952 | 75 | 144 | 5.0 | 10.0 | 0.00 | 0.00 | 0.00 | 30 | 1011.0 |
| 20260905095636 | 75 | 181 | 5.0 | 10.0 | 0.00 | 0.00 | 0.00 | 30 | 1011.0 |
| 20260905095317 | 75 | 149 | 5.0 | 10.0 | 0.00 | 0.00 | 0.00 | 30 | 1010.9 |
| 20260905094354 | 75 | 144 | 3.0 | 6.0 | 0.00 | 0.00 | 0.00 | 30 | 1011.0 |
| 20260905094033 | 75 | 161 | 2.0 | 5.0 | 0.00 | 0.00 | 0.00 | 30 | 1011.0 |
| 20260905093716 | 75 | 155 | 2.0 | 5.0 | 0.00 | 0.00 | 0.00 | 30 | 1010.9 |
| 20260905093353 | 75 | 180 | 2.0 | 5.0 | 0.00 | 0.00 | 0.00 | 30 | 1010.9 |
| 20260905093028 | 75 | 194 | 2.0 | 5.0 | 0.00 | 0.00 | 0.00 | 30 | 1010.9 |
| 20260905092715 | 76 | 177 | 1.0 | 4.0 | 0.00 | 0.00 | 0.00 | 30 | 1010.9 |
| 20260905092351 | 76 | 196 | 1.0 | 3.0 | 0.00 | 0.00 | 0.00 | 29 | 1010.9 |
| 20260905092025 | 76 | 171 | 1.0 | 5.0 | 0.00 | 0.00 | 0.00 | 29 | 1010.8 |
| 20260905091705 | 76 | 190 | 1.0 | 5.0 | 0.00 | 0.00 | 0.00 | 29 | 1010.9 |
| 20260905091038 | 76 | 148 | 1.0 | 5.0 | 0.00 | 0.00 | 0.00 | 28 | 1010.9 |
| 20260905090716 | 76 | 168 | 1.0 | 5.0 | 0.00 | 0.00 | 0.00 | 29 | 1010.9 |
| 20260905090350 | 76 | 202 | 2.0 | 5.0 | 0.00 | 0.00 | 0.00 | 29 | 1011.0 |
| 20260905085725 | 76 | 200 | 2.0 | 5.0 | 0.00 | 0.00 | 0.00 | 28 | 1011.0 |
| 20260905085400 | 76 | 197 | 2.0 | 5.0 | 0.00 | 0.00 | 0.00 | 29 | 1011.0 |
| 20260905085042 | 76 | 199 | 2.0 | 4.0 | 0.00 | 0.00 | 0.00 | 28 | 1011.0 |
| 20260905084418 | 76 | 195 | 2.0 | 4.0 | 0.00 | 0.00 | 0.00 | 28 | 1011.0 |
| 20260905084058 | 76 | 171 | 3.0 | 4.0 | 0.00 | 0.00 | 0.00 | 28 | 1011.0 |
| 20260905083742 | 77 | 171 | 3.0 | 5.0 | 0.00 | 0.00 | 0.00 | 28 | 1011.1 |
| 20260905083423 | 77 | 160 | 3.0 | 5.0 | 0.00 | 0.00 | 0.00 | 27 | 1011.0 |
| 20260905083109 | 77 | 155 | 3.0 | 5.0 | 0.00 | 0.00 | 0.00 | 27 | 1011.0 |
| 20260905082747 | 77 | 156 | 3.0 | 5.0 | 0.00 | 0.00 | 0.00 | 27 | 1011.0 |
| 20260905082422 | 77 | 169 | 2.0 | 5.0 | 0.00 | 0.00 | 0.00 | 26 | 1011.1 |
| 20260905082100 | 77 | 159 | 2.0 | 5.0 | 0.00 | 0.00 | 0.00 | 25 | 1011.1 |
| 20260905081740 | 77 | 157 | 1.0 | 4.0 | 0.00 | 0.00 | 0.00 | 25 | 1011.0 |
| 20260905081415 | 77 | 196 | 2.0 | 4.0 | 0.00 | 0.00 | 0.00 | 24 | 1010.9 |
| 20260905081055 | 78 | 194 | 2.0 | 4.0 | 0.00 | 0.00 | 0.00 | 24 | 1010.8 |
| 20260905080729 | 78 | 203 | 2.0 | 4.0 | 0.00 | 0.00 | 0.00 | 24 | 1010.9 |
| 20260905080108 | 78 | 246 | 2.0 | 4.0 | 0.00 | 0.00 | 0.00 | 23 | 1010.7 |
| 20260905075749 | 78 | 255 | 2.0 | 3.0 | 0.00 | 0.00 | 0.00 | 24 | 1010.8 |
| 20260905075428 | 79 | 225 | 1.0 | 3.0 | 0.00 | 0.00 | 0.00 | 23 | 1010.8 |
| 20260905075110 | 79 | 219 | 1.0 | 3.0 | 0.00 | 0.00 | 0.00 | 22 | 1010.7 |
| 20260905074753 | 79 | 229 | 1.0 | 3.0 | 0.00 | 0.00 | 0.00 | 22 | 1010.8 |
| 20260905074438 | 79 | 188 | 1.0 | 3.0 | 0.00 | 0.00 | 0.00 | 22 | 1010.7 |
| 20260905074113 | 79 | 186 | 1.0 | 3.0 | 0.00 | 0.00 | 0.00 | 21 | 1010.7 |
| 20260905073453 | 80 | 151 | 0.0 | 1.0 | 0.00 | 0.00 | 0.00 | 21 | 1010.7 |
| 20260905072835 | 80 | 147 | 1.0 | 3.0 | 0.00 | 0.00 | 0.00 | 21 | 1010.6 |
| 20260905072513 | 80 | 147 | 1.0 | 3.0 | 0.00 | 0.00 | 0.00 | 20 | 1010.6 |
| 20260905071849 | 80 | 205 | 1.0 | 8.0 | 0.00 | 0.00 | 0.00 | 20 | 1010.5 |
| 20260905071536 | 80 | 230 | 2.0 | 8.0 | 0.00 | 0.00 | 0.00 | 20 | 1010.2 |
| 20260905071210 | 80 | 238 | 3.0 | 8.0 | 0.00 | 0.00 | 0.00 | 20 | 1010.2 |
| 20260905070845 | 81 | 211 | 3.0 | 9.0 | 0.00 | 0.00 | 0.00 | 20 | 1010.2 |
| 20260905070530 | 81 | 254 | 4.0 | 9.0 | 0.00 | 0.00 | 0.00 | 20 | 1010.1 |
| 20260905070211 | 81 | 234 | 4.0 | 9.0 | 0.00 | 0.00 | 0.00 | 20 | 1010.1 |
| 20260905065544 | 81 | 248 | 5.0 | 10.0 | 0.00 | 0.00 | 0.00 | 19 | 1010.1 |
| 20260905064920 | 80 | 252 | 5.0 | 10.0 | 0.00 | 0.00 | 0.00 | 19 | 1010.0 |
| 20260905064306 | 80 | 172 | 4.0 | 10.0 | 0.00 | 0.00 | 0.00 | 20 | 1009.9 |
| 20260905063946 | 80 | 208 | 3.0 | 10.0 | 0.00 | 0.00 | 0.00 | 20 | 1009.9 |
| 20260905063619 | 80 | 173 | 3.0 | 8.0 | 0.00 | 0.00 | 0.00 | 20 | 1010.0 |
| 20260905063257 | 80 | 150 | 3.0 | 8.0 | 0.00 | 0.00 | 0.00 | 20 | 1010.0 |
| 20260905062638 | 80 | 176 | 3.0 | 7.0 | 0.00 | 0.00 | 0.00 | 21 | 1009.9 |
| 20260905062319 | 80 | 171 | 3.0 | 7.0 | 0.00 | 0.00 | 0.00 | 20 | 1009.9 |